Weather History for Spirit of St Louis, MO

Change the Weather History Date:

Tuesday, November 20, 2012

  Actual Average Record
Temperature  
Mean Temperature 48 °F -  
Max Temperature 62 °F 51 °F 75 °F (2007)
Min Temperature 34 °F 31 °F 19 °F (2000)
Degree Days  
Heating Degree Days 17    
Moisture  
Dew Point 39 °F    
Average Humidity 87    
Maximum Humidity 100    
Minimum Humidity 50    
Precipitation  
Precipitation 0.00 in - - ()
Sea Level Pressure  
Sea Level Pressure 30.13 in    
Wind  
Wind Speed 1 mph (WNW)    
Max Wind Speed 10 mph    
Max Gust Speed -    
Visibility 7 miles    
Events Fog    
Averages and records for this station are not official NWS values.
T = Trace of Precipitation, MM = Missing Value Source: NWS Daily Summary

Daily Weather History Graph

Daily Weather History Graph

Search for Another Location

Airport:

Trip Planner

Search our weather history database for the weather conditions in past years. The results will help you decide how hot, cold, wet, or windy it might be!

Date:

Astronomy

Nov. 20, 2012 Rise Set
Actual Time 6:50 AM CST 4:45 PM CST
Civil Twilight 6:22 AM CST 5:14 PM CST
Nautical Twilight 5:49 AM CST 5:46 PM CST
Astronomical Twilight 5:17 AM CST 6:18 PM CST
Moon 12:27 PM CST (11/20) No Moon Set
Length of Visible Light 10h 52m
Length of Day
9h 54m
First Quarter, 51% of the Moon is Illuminated
Nov 20
First Quarter
Nov 28
Full
Dec 6
Last Quarter
Dec 13
New
Dec 19
First Quarter

Hourly Weather History & Observations

Time (CST) Temp. Windchill Dew Point Humidity Pressure Visibility Wind Dir Wind Speed Gust Speed Precip Events Conditions
12:54 AM 37.9 °F - 36.0 °F 93% 30.12 in 9.0 mi Calm Calm - N/A   Clear
1:54 AM 42.1 °F 38.4 °F 39.0 °F 89% 30.11 in 10.0 mi WSW 5.8 mph - N/A   Clear
2:54 AM 44.1 °F 41.5 °F 39.9 °F 85% 30.10 in 10.0 mi WSW 4.6 mph - N/A   Clear
3:54 AM 41.0 °F - 37.9 °F 89% 30.09 in 10.0 mi Calm Calm - N/A   Clear
4:30 AM 39.2 °F - 37.4 °F 93% 30.08 in 1.8 mi Calm Calm - N/A   Clear
4:42 AM 37.4 °F - 35.6 °F 93% 30.08 in 3.0 mi Calm Calm - N/A   Clear
4:47 AM 37.4 °F - 35.6 °F 93% 30.08 in 1.5 mi Calm Calm - N/A   Clear
4:54 AM 36.0 °F - 36.0 °F 100% 30.09 in 0.5 mi Calm Calm - N/A Fog Fog
5:12 AM 35.6 °F - 33.8 °F 93% 30.09 in 2.5 mi Calm Calm - N/A   Clear
5:26 AM 37.4 °F - 35.6 °F 93% 30.08 in 0.8 mi Calm Calm - N/A   Clear
5:41 AM 35.6 °F - 35.6 °F 100% 30.08 in 8.0 mi Calm Calm - N/A   Clear
5:54 AM 35.6 °F - 35.6 °F 100% 30.08 in 8.0 mi Calm Calm - N/A   Clear
6:12 AM 35.6 °F - 33.8 °F 93% 30.08 in 8.0 mi Calm Calm - N/A   Mostly Cloudy
6:51 AM 35.6 °F - 33.8 °F 93% 30.10 in 8.0 mi Calm Calm - N/A   Scattered Clouds
6:54 AM 34.0 °F - 33.1 °F 96% 30.11 in 8.0 mi Calm Calm - N/A   Scattered Clouds
7:21 AM 35.6 °F - 35.6 °F 100% 30.10 in 8.0 mi Calm Calm - N/A   Scattered Clouds
7:54 AM 39.9 °F - 39.0 °F 97% 30.12 in 10.0 mi Calm Calm - N/A   Mostly Cloudy
8:54 AM 46.9 °F - 44.1 °F 90% 30.13 in 10.0 mi Calm Calm - N/A   Mostly Cloudy
9:54 AM 50.0 °F - 45.0 °F 83% 30.13 in 10.0 mi WSW 4.6 mph - N/A   Scattered Clouds
10:54 AM 54.0 °F - 45.0 °F 72% 30.13 in 10.0 mi Calm Calm - N/A   Partly Cloudy
11:54 AM 59.0 °F - 45.0 °F 60% 30.10 in 10.0 mi WSW 3.5 mph - N/A   Clear
12:54 PM 62.6 °F - 44.6 °F 52% 30.09 in 10.0 mi NNW 4.6 mph - N/A   Clear
1:54 PM 62.1 °F - 43.0 °F 50% 30.09 in 10.0 mi NNW 8.1 mph - N/A   Clear
2:54 PM 62.1 °F - 45.0 °F 53% 30.09 in 10.0 mi NNW 10.4 mph - N/A   Clear
3:54 PM 59.0 °F - 46.0 °F 62% 30.12 in 10.0 mi NW 6.9 mph - N/A   Clear
4:54 PM 53.1 °F - 45.0 °F 74% 30.14 in 10.0 mi NW 4.6 mph - N/A   Clear
5:54 PM 50.0 °F - 44.1 °F 80% 30.17 in 7.0 mi Calm Calm - N/A   Clear
6:54 PM 48.0 °F - 44.1 °F 86% 30.18 in 10.0 mi Calm Calm - N/A   Clear
7:54 PM 45.0 °F 43.5 °F 42.1 °F 90% 30.19 in 4.0 mi South 3.5 mph - N/A   Clear
8:54 PM 43.0 °F - 41.0 °F 93% 30.20 in 6.0 mi Calm Calm - N/A   Haze
9:54 PM 41.0 °F - 39.0 °F 93% 30.21 in 6.0 mi Calm Calm - N/A   Clear
10:54 PM 37.9 °F - 36.0 °F 93% 30.22 in 6.0 mi Calm Calm - N/A   Clear
11:03 PM 39.2 °F - 37.4 °F 93% 30.21 in 2.5 mi Calm Calm - N/A   Clear
11:21 PM 37.4 °F - 35.6 °F 93% 30.21 in 3.0 mi Calm Calm - N/A   Mostly Cloudy
11:37 PM 37.4 °F - 35.6 °F 93% 30.21 in 2.5 mi Calm Calm - N/A   Mostly Cloudy
11:49 PM 39.2 °F - 37.4 °F 93% 30.21 in 2.5 mi Calm Calm - N/A   Scattered Clouds
11:54 PM 37.9 °F - 36.0 °F 93% 30.22 in 2.0 mi Calm Calm - N/A   Partly Cloudy
11:59 PM 37.4 °F - 37.4 °F 100% 30.21 in 1.8 mi Calm Calm - N/A   Partly Cloudy